{"data":{"norad_id":66605,"epoch":"2026-05-24T20:40:03.675360Z","epoch_age_seconds":87827,"freshness":"FRESH","line1":"1 66605U 25270T   26144.86115365  .00015008  00000+0  55357-3 0  9992","line2":"2 66605  43.0023 346.1427 0001194 279.5198  80.5519 15.27593552 29351","mean_motion":15.27593552,"eccentricity":0.0001194,"inclination_deg":43.0023,"raan_deg":346.1427,"arg_perigee_deg":279.5198,"mean_anomaly_deg":80.5519,"bstar":0.00055357,"rev_number":2935,"period_min":94.265912429041,"perigee_km":482.18929600164,"apogee_km":483.82773755105,"semimajor_km":6861.1455167763,"source":"CELESTRAK","updated_at":"2026-05-25T13:38:21.290925Z"}}